Regional Weather Roundup
Issued by NWS

Home | Current Version | Previous Version | Text Only | Print | Product List | Glossary On
Versions: 1 2 3 4 5 6 7 8 9 10 11 12 13 14 15 16 17 18 19 20 21 22 23 24 25 26 27
000
ASUS44 KJAN 241210
RWRMS

MISSISSIPPI HOURLY WEATHER ROUNDUP
NATIONAL WEATHER SERVICE JACKSON MS
600 AM CST SAT FEB 24 2018

NOTE: "FAIR: INDICATES FEW OR NO CLOUDS BELOW 12,000 FEET WITH NO
SIGNIFICANT WEATHER AND/OR OBSTRUCTIONS TO VISIBILITY.

MSZ001>002-007>008-010>013-018>021-025>028-034>036-241300-
NORTHWEST MISSISSIPPI

CITY           SKY/WX    TMP DP  RH WIND       PRES   REMARKS
BATESVILLE       N/A    N/A N/A N/A MISG        N/A
CLARKSDALE     CLOUDY    66  66 100 S8        30.02F
CLEVELAND      CLOUDY    66  66 100 S9        30.02F
GREENWOOD      CLOUDY    67  66  97 S8        30.05S
6HR MIN TEMP:  66; 6HR MAX TEMP:  68;

GREENVILLE     CLOUDY    67  64  90 S10       30.02S
6HR MIN TEMP:  66; 6HR MAX TEMP:  68;

TUNICA           N/A     64  63  94 S9        30.02F
WINONA         CLOUDY    67  67 100 S6        30.07S
$$

MSZ003>006-009-014>017-022>024-029>033-037>039-241300-
NORTHEAST MISSISSIPPI

CITY           SKY/WX    TMP DP  RH WIND       PRES   REMARKS
ABERDEEN       CLOUDY    68  68 100 S8        30.10R
COLUMBUS AFB   FAIR      67  67 100 S7        30.09R
6HR MIN TEMP:  65; 6HR MAX TEMP:  68;

CORINTH        CLOUDY    66  64  94 S5        30.06R
GOLDN TRIANGLE CLOUDY    67  66  97 S8        30.10R
STARKVILLE     FAIR      64  63  94 S5        30.10R
TUPELO         MOCLDY    67  64  90 S8        30.07R
6HR MIN TEMP:  65; 6HR MAX TEMP:  68;

$$

MSZ040-058-241300-
CENTRAL MISSISSIPPI

CITY           SKY/WX    TMP DP  RH WIND       PRES   REMARKS
JACKSON INTL   MOCLDY    68  66  93 S9        30.07S
6HR MIN TEMP:  67; 6HR MAX TEMP:  68; 6HR PCP: TRACE;

JACKSON HAWKNS CLOUDY    68  68 100 S8        30.07S
6HR MIN TEMP:  67; 6HR MAX TEMP:  69;

MADISON        CLOUDY    66  64  94 S5        30.07F
MERIDIAN KEY   CLOUDY    69  67  93 S8        30.11S
6HR MIN TEMP:  69; 6HR MAX TEMP:  70; 6HR PCP:  0.03;

MERIDIAN NAS   NOT AVBL
RAYMOND        FAIR      68  66  94 SE5       30.06S FOG
VICKSBURG VKS    N/A    N/A N/A N/A MISG        N/A
$$

MSZ059>079-241300-
SOUTH MISSISSIPPI

CITY           SKY/WX    TMP DP  RH WIND       PRES   REMARKS
COLUMBIA       CLOUDY    70  68  94 S6        30.15R
HATTIESBURG    MOCLDY    69  69 100 S7        30.12S
6HR MIN TEMP:  68; 6HR MAX TEMP:  69; 6HR PCP:  0.01;

LAUREL         CLOUDY    68  68 100 S6        30.12S
MCCOMB         CLOUDY    70  67  90 S8        30.09S
6HR MIN TEMP:  69; 6HR MAX TEMP:  70;

NATCHEZ        CLOUDY    70  66  88 S10       30.06S
6HR MIN TEMP:  69; 6HR MAX TEMP:  70;

PINE BELT      MOCLDY    68  67  96 SE6       30.12S
6HR MIN TEMP:  67; 6HR MAX TEMP:  68; 6HR PCP:  0.03;

$$

MSZ080>082-241300-
COASTAL MISSISSIPPI

CITY           SKY/WX    TMP DP  RH WIND       PRES   REMARKS
BILOXI         MOCLDY    71  69  90 S9        30.11R
6HR MIN TEMP:  71; 6HR MAX TEMP:  72;

PASCAGOULA     FAIR      71  68  90 S3        30.12R
6HR MIN TEMP:  71; 6HR MAX TEMP:  72;

GULFPORT       CLOUDY    72  70  93 S3        30.11R
6HR MIN TEMP:  70; 6HR MAX TEMP:  72; 6HR PCP:  0.29;

$$

LAZ007>009-015>016-023>026-241300-
NORTHEAST LOUISIANA

CITY           SKY/WX    TMP DP  RH WIND       PRES   REMARKS
BASTROP        CLOUDY    68  68  99 S5        30.03S
TALLULAH/VBURG CLOUDY    68  68 100 SE7       30.05S
6HR MIN TEMP:  67; 6HR MAX TEMP:  69;

VIDALIA        PTSUNNY   67  66  96 SE6       30.04S
$$




USA.gov is the U.S. government's official web portal to all federal, state and local government web resources and services.